• In Hungary
  • List of Countries
  • For 7 days
  • Water Temperature
  • Satellite Maps
  • Weather Map
  • News
  • Weather Widgets
  • user-avatar
    Login

    Hourly Weather Korolevu

    Today, 16 January, Tuesday

    Time Temperature Precipitation Wind Pressure Humidity
    00:00 +25°C° 0 mm 2 mps 734 mmHg 93%
    01:00 +25°C° 0.3 mm 2 mps 734 mmHg 94%
    02:00 +25°C° 0.3 mm 2 mps 734 mmHg 94%
    03:00 +25°C° 0.3 mm 2 mps 734 mmHg 94%
    04:00 +25°C° 1.2 mm 2 mps 734 mmHg 93%
    05:00 +25°C° 1.2 mm 2 mps 734 mmHg 93%
    06:00 +25°C° 0 mm 2 mps 734 mmHg 93%
    07:00 +26°C° 0.9 mm 3 mps 734 mmHg 90%
    08:00 +27°C° 0.9 mm 3 mps 735 mmHg 87%
    09:00 +28°C° 0.9 mm 3 mps 735 mmHg 83%
    10:00 +28°C° 0.3 mm 3 mps 735 mmHg 78%
    11:00 +29°C° 0.3 mm 3 mps 735 mmHg 72%
    12:00 +30°C° 0 mm 4 mps 735 mmHg 66%
    13:00 +30°C° 0.7 mm 4 mps 735 mmHg 70%
    14:00 +29°C° 0.7 mm 3 mps 735 mmHg 74%
    15:00 +29°C° 0.7 mm 3 mps 735 mmHg 78%
    16:00 +28°C° 0.3 mm 3 mps 735 mmHg 81%
    17:00 +27°C° 0.3 mm 2 mps 735 mmHg 84%
    18:00 +26°C° 0 mm 2 mps 735 mmHg 88%
    19:00 +26°C° 0.1 mm 2 mps 735 mmHg 89%
    20:00 +25°C° 0.1 mm 2 mps 736 mmHg 91%
    21:00 +25°C° 0.1 mm 2 mps 736 mmHg 92%
    22:00 +25°C° 0 mm 1 mps 736 mmHg 92%
    23:00 +24°C° 0 mm 1 mps 736 mmHg 92%

    Tomorrow, 17 January, Wednesday

    Time Temperature Precipitation Wind Pressure Humidity
    00:00 +24°C° 0 mm 1 mps 736 mmHg 92%
    01:00 +24°C° 0.1 mm 1 mps 736 mmHg 92%
    02:00 +24°C° 0.1 mm 1 mps 736 mmHg 92%
    03:00 +24°C° 0.1 mm 1 mps 736 mmHg 91%
    04:00 +24°C° 0.1 mm 1 mps 736 mmHg 91%
    05:00 +24°C° 0.1 mm 1 mps 736 mmHg 90%
    06:00 +24°C° 0.1 mm 1 mps 736 mmHg 90%
    07:00 +24°C° 0 mm 1 mps 737 mmHg 88%
    08:00 +25°C° 0 mm 1 mps 737 mmHg 87%
    09:00 +25°C° 0 mm 1 mps 737 mmHg 85%
    10:00 +26°C° 0 mm 1 mps 737 mmHg 80%
    11:00 +27°C° 0 mm 1 mps 737 mmHg 75%
    12:00 +28°C° 0 mm 1 mps 737 mmHg 70%
    13:00 +28°C° 0 mm 1 mps 737 mmHg 69%
    14:00 +28°C° 0 mm 1 mps 737 mmHg 68%
    15:00 +28°C° 0 mm 1 mps 736 mmHg 68%
    16:00 +27°C° 0 mm 1 mps 736 mmHg 71%
    17:00 +26°C° 0 mm 1 mps 736 mmHg 74%
    18:00 +25°C° 0 mm 1 mps 736 mmHg 77%
    19:00 +25°C° 0 mm 1 mps 737 mmHg 78%
    20:00 +24°C° 0 mm 1 mps 737 mmHg 79%
    21:00 +24°C° 0 mm 1 mps 737 mmHg 80%
    22:00 +24°C° 0 mm 1 mps 738 mmHg 81%
    23:00 +24°C° 0 mm 1 mps 738 mmHg 82%

    Day after tomorrow, 18 January, Thursday

    Time Temperature Precipitation Wind Pressure Humidity
    00:00 +24°C° 0 mm 1 mps 738 mmHg 82%
    01:00 +24°C° 0 mm 1 mps 737 mmHg 83%
    02:00 +23°C° 0 mm 1 mps 737 mmHg 85%
    03:00 +23°C° 0 mm 1 mps 736 mmHg 86%
    04:00 +23°C° 0 mm 1 mps 737 mmHg 87%
    05:00 +23°C° 0 mm 1 mps 737 mmHg 89%
    06:00 +23°C° 0 mm 1 mps 737 mmHg 90%
    07:00 +25°C° 0 mm 1 mps 737 mmHg 84%
    08:00 +27°C° 0 mm 1 mps 737 mmHg 77%
    09:00 +29°C° 0 mm 2 mps 738 mmHg 70%
    10:00 +31°C° 0 mm 2 mps 738 mmHg 63%
    11:00 +32°C° 0 mm 2 mps 738 mmHg 57%
    12:00 +35°C° 0 mm 2 mps 737 mmHg 50%
    13:00 +34°C° 0.2 mm 2 mps 737 mmHg 55%
    14:00 +33°C° 0.2 mm 3 mps 736 mmHg 60%
    15:00 +31°C° 0.2 mm 3 mps 736 mmHg 65%
    16:00 +30°C° 0.5 mm 3 mps 736 mmHg 71%
    17:00 +29°C° 0.5 mm 2 mps 736 mmHg 76%
    18:00 +28°C° 0.5 mm 2 mps 736 mmHg 82%
    19:00 +27°C° 0.1 mm 2 mps 736 mmHg 85%
    20:00 +26°C° 0.1 mm 2 mps 737 mmHg 89%
    21:00 +25°C° 0.1 mm 2 mps 737 mmHg 92%
    22:00 +25°C° 0 mm 2 mps 737 mmHg 93%
    23:00 +24°C° 0 mm 1 mps 737 mmHg 94%

    19 January, Friday

    Time Temperature Precipitation Wind Pressure Humidity
    00:00 +24°C° 0 mm 1 mps 737 mmHg 94%
    01:00 +24°C° 0 mm 1 mps 736 mmHg 95%
    02:00 +24°C° 0 mm 1 mps 736 mmHg 95%
    03:00 +24°C° 0 mm 1 mps 735 mmHg 96%
    04:00 +24°C° 0 mm 1 mps 735 mmHg 96%
    05:00 +24°C° 0 mm 1 mps 736 mmHg 96%
    06:00 +23°C° 0 mm 1 mps 736 mmHg 96%
    07:00 +25°C° 0 mm 1 mps 736 mmHg 88%
    08:00 +27°C° 0 mm 2 mps 737 mmHg 81%
    09:00 +29°C° 0 mm 2 mps 737 mmHg 73%
    10:00 +31°C° 0 mm 2 mps 737 mmHg 67%
    11:00 +32°C° 0 mm 2 mps 737 mmHg 61%
    12:00 +34°C° 0 mm 2 mps 737 mmHg 54%
    13:00 +34°C° 0.9 mm 2 mps 736 mmHg 61%
    14:00 +32°C° 0.9 mm 2 mps 736 mmHg 68%
    15:00 +31°C° 0.9 mm 2 mps 735 mmHg 74%
    16:00 +30°C° 0.4 mm 2 mps 735 mmHg 77%
    17:00 +29°C° 0.4 mm 2 mps 736 mmHg 81%
    18:00 +28°C° 0.4 mm 2 mps 736 mmHg 84%
    19:00 +27°C° 0 mm 2 mps 736 mmHg 87%
    20:00 +26°C° 0 mm 2 mps 737 mmHg 90%
    21:00 +26°C° 0 mm 2 mps 737 mmHg 93%
    22:00 +25°C° 0 mm 2 mps 737 mmHg 94%
    23:00 +25°C° 0 mm 2 mps 737 mmHg 94%

    20 January, Saturday

    Time Temperature Precipitation Wind Pressure Humidity
    00:00 +25°C° 0 mm 2 mps 737 mmHg 94%
    01:00 +25°C° 0 mm 2 mps 737 mmHg 95%
    02:00 +25°C° 0 mm 2 mps 736 mmHg 95%
    03:00 +25°C° 0 mm 2 mps 736 mmHg 95%
    04:00 +25°C° 0 mm 2 mps 736 mmHg 95%
    05:00 +25°C° 0 mm 2 mps 736 mmHg 95%
    06:00 +25°C° 0 mm 2 mps 736 mmHg 95%
    07:00 +26°C° 0 mm 2 mps 736 mmHg 89%
    08:00 +28°C° 0 mm 3 mps 737 mmHg 82%
    09:00 +29°C° 0 mm 3 mps 737 mmHg 75%
    10:00 +30°C° 0.4 mm 3 mps 737 mmHg 73%
    11:00 +31°C° 0.4 mm 3 mps 737 mmHg 72%
    12:00 +31°C° 0.4 mm 3 mps 737 mmHg 70%
    13:00 +31°C° 1.7 mm 3 mps 736 mmHg 73%
    14:00 +31°C° 1.7 mm 3 mps 736 mmHg 76%
    15:00 +30°C° 1.7 mm 3 mps 735 mmHg 79%
    16:00 +29°C° 0.7 mm 3 mps 735 mmHg 82%
    17:00 +28°C° 0.7 mm 3 mps 736 mmHg 86%
    18:00 +27°C° 0.7 mm 3 mps 736 mmHg 90%
    19:00 +27°C° 0.2 mm 3 mps 736 mmHg 91%
    20:00 +26°C° 0.2 mm 3 mps 736 mmHg 93%
    21:00 +26°C° 0.2 mm 3 mps 737 mmHg 95%
    22:00 +25°C° 0.1 mm 2 mps 737 mmHg 95%
    23:00 +25°C° 0.1 mm 2 mps 736 mmHg 95%

    21 January, Sunday

    Time Temperature Precipitation Wind Pressure Humidity
    00:00 +25°C° 0.1 mm 2 mps 736 mmHg 95%
    01:00 +25°C° 0.1 mm 2 mps 736 mmHg 95%
    02:00 +25°C° 0.1 mm 2 mps 735 mmHg 95%
    03:00 +25°C° 0.1 mm 2 mps 735 mmHg 95%
    04:00 +25°C° 0.1 mm 2 mps 735 mmHg 95%
    05:00 +25°C° 0.1 mm 3 mps 735 mmHg 95%
    06:00 +25°C° 0.1 mm 3 mps 736 mmHg 94%
    07:00 +26°C° 0.1 mm 3 mps 736 mmHg 90%
    08:00 +27°C° 0.1 mm 3 mps 736 mmHg 86%
    09:00 +29°C° 0.1 mm 4 mps 737 mmHg 81%
    10:00 +30°C° 0.2 mm 4 mps 736 mmHg 77%
    11:00 +32°C° 0.2 mm 4 mps 736 mmHg 72%
    12:00 +33°C° 0.2 mm 4 mps 736 mmHg 67%
    13:00 +33°C° 0.1 mm 4 mps 735 mmHg 67%
    14:00 +33°C° 0.1 mm 4 mps 735 mmHg 66%
    15:00 +33°C° 0.1 mm 4 mps 734 mmHg 65%
    16:00 +32°C° 0.2 mm 4 mps 734 mmHg 71%
    17:00 +29°C° 0.2 mm 4 mps 734 mmHg 77%
    18:00 +28°C° 0.2 mm 4 mps 734 mmHg 83%
    19:00 +27°C° 0.1 mm 3 mps 735 mmHg 86%
    20:00 +27°C° 0.1 mm 3 mps 735 mmHg 89%
    21:00 +26°C° 0.1 mm 3 mps 735 mmHg 92%
    22:00 +26°C° 0.1 mm 3 mps 735 mmHg 92%
    23:00 +26°C° 0.1 mm 3 mps 735 mmHg 92%
    Show more